sat.trackr.live / text

‹ back to catalog

IRIDE-MS2-HEO-11

NORAD 68983 · 2026-100D

PAYLOAD ACTIVE UNKNOWN

§ Identity

Operator
Country
IT
Launch date
2026-05-03
Launch site
AFWTR
Launch vehicle
Mass (kg)
RCS (m²)

External: N2YO · Heavens-Above · Gunter

§ Orbital elements

Epoch: 2026-09-20T04:02:05.752032Z

Period
96.58 min
Inclination
97.7245°
Eccentricity
0.0003299
Mean motion
14.91042120 rev/d
Perigee alt
592.4 km
Apogee alt
597.0 km
Semi-major
6,972.8 km
B*
7.9624e-5
RAAN
158.7099°
Arg perigee
161.6616°
Mean anomaly
198.4721°
Rev number
2,085

§ Raw data

IRIDE-MS2-HEO-111 68983U 26100D   26263.16812213  .00000733  00000+0  79624-4 0  99902 68983  97.7245 158.7099 0003299 161.6616 198.4721 14.91042120 20850

JSON: /api/v1/satellites/68983 · /tle

For live sub-satellite position, see the globe view (requires WebGL).

§ Visibility from observer

Set your observer location to see the next 7 days of passes ≥ 10°. The values pass through the URL so the page stays shareable.

No JS? Fill the form by hand. The geolocation button needs JavaScript.